User: anonymous   Login
Location: ??????
(41.3164°N, 22.6615°E)
Time: 23:58:08
(UTC+00:00)
Language:

Cosmos 1943 - Orbit

View from above orbital plane
View from above orbital plane
View from above satellite
View from above satellite

Ground track
Ground track

The orbit data is extracted from the following two-line orbital elements,

1 19119U 88039A   22222.19788503  .00000329  00000-0  19383-3 0  9991
2 19119  71.0035 113.3672 0009552  75.4481  85.8800 14.15223554767799
Epoch (UTC): 10 August 2022 04:44:57
Eccentricity: 0.0009552
inclination: 71.0035°
perigee height: 834 km
apogee height: 848 km
right ascension of ascending node: 113.3672°
argument of perigee: 75.4481°
revolutions per day: 14.15223554
mean anomaly at epoch: 85.8800°
orbit number at epoch: 76779

The dashed part of the orbit path shows where the satellite is in the earth's shadow,  

DLR